Погода в Борилове

Россия / Орловская область     53°21′56″N   35°58′18″E
темп.,
°C
ветер,
м/с
пор.,
м/с
влажн.,
%
обл.,
%
осадки,
мм/ч
давл.,
гПа
погр.,
м
6 декабря, пн
пн600:00−5ююв2493100 0.0 101968
03:00−4ююв2589100 0.0 1019120
06:00−4юв3687100 0.0 1018155
09:00−4юв3786100 0.0 1020195
12:00−2юв4976100 0.0 1020365
15:00−2юв41076100 0.0 1019390
18:00−3юв51084100 0.0 1019376
21:00−3юв51287100 0.1 1018396
7 декабря, вт
вт700:00−2юв61497100 1.2 1017470
03:00−1юв71698100 4.7 1014547
06:000ююв81696100 1.8 1012554
09:00+1ююв71499100 3.3 1012463
12:00+2ююв61399100 0.1 1011384
15:00+2ююв511100100 0.2 1010278
18:00+2ююв412100100 0.7 1010272
21:00+3ю412100100 2.4 1010307
8 декабря, ср
ср800:00+2ю25100100 5.4 1011106
03:00+2ю26100100 9.8 1011152
06:00+1зсз00100100 4.9 101220
09:00+1ссв3599100 5.8 1013151
12:00+1ссв3699100 0.0 1014199
15:00+1св5899100 0.1 1013259
18:00+1св4898100 0.0 1014258
21:00+1св4798100 0.0 1014235
9 декабря, чт
чт900:00+1св4798100 0.0 1014222
03:00+1св4699100 0.1 1014209
06:00+1св4798100 0.1 1014251
09:00+1всв4898100 0.3 1015247
12:00+2всв4797100 0.0 1016272
15:00+1всв4698100 0.5 1016200
18:00+2всв3798100 0.3 1017213
21:00+2в3798100 0.6 1018229
10 декабря, пт
пт1000:00+2в3599100 0.4 1018159
03:00+2вюв2399100 0.4 101978
06:00+2вюв2398100 0.1 101975
09:00+3вюв3598100 0.1 1020129
12:00+3вюв3797100 0.0 1020215
15:00+3вюв4897100 0.1 1020258
18:00+3вюв4997100 0.0 1020270
21:00+3вюв41095100 0.0 1020272